FW9143 Weather Reports


time (UTC)temp
C
wind
direction
speed
KPH
gust
KPH
rain 1hr
cm
rain 24hr
cm
rain mn
cm
humidity
%
barometer
mb
20260510045016 17 198 0.0 3.2 0.00 0.00 0.00 86 1011.7
20260510044016 17 184 1.6 3.2 0.00 0.00 0.00 85 1011.6
20260510043016 17 279 0.0 6.4 0.00 0.00 0.00 85 1011.6
20260510042021 17 278 3.2 6.4 0.00 0.00 0.00 85 1011.5
20260510041016 17 273 1.6 4.8 0.00 0.00 0.00 85 1011.5
20260510040016 17 238 0.0 4.8 0.00 0.03 0.00 84 1011.4
20260510035016 17 285 0.0 4.8 0.00 0.03 0.00 84 1011.1
20260510034016 17 275 1.6 3.2 0.00 0.05 0.00 84 1011.0
20260510033036 17 275 1.6 3.2 0.00 0.08 0.00 84 1010.9
20260510032016 17 275 1.6 3.2 0.00 0.10 0.00 81 1010.9
20260510031036 17 275 0.0 3.2 0.00 0.10 0.00 80 1010.8
20260510030036 17 335 1.6 3.2 0.00 0.10 0.00 82 1010.8
20260510025016 17 57 0.0 1.6 0.00 0.10 0.00 79 1010.7
20260510024016 18 57 0.0 1.6 0.00 0.10 0.00 77 1010.5
20260510023016 18 0.0 0.0 0.00 0.10 0.00 77 1010.3
20260510021015 19 0.0 0.0 0.00 0.10 0.00 74 1010.0
20260510020016 19 0.0 0.0 0.00 0.10 0.00 70 1009.8
20260510015016 20 0.0 0.0 0.00 0.10 0.00 69 1009.7
20260510014016 20 0.0 0.0 0.00 0.10 0.00 69 1009.6
20260510013019 21 57 0.0 1.6 0.00 0.10 0.00 67 1009.5
20260510012016 22 0.0 0.0 0.00 0.10 0.00 65 1009.3
20260510011019 23 0.0 0.0 0.00 0.10 0.00 59 1009.2
20260510010036 24 0.0 0.0 0.00 0.10 0.00 56 1009.1
20260510005536 25 0.0 0.0 0.00 0.10 0.00 54 1009.1
20260510004516 26 57 0.0 1.6 0.00 0.10 0.00 51 1009.0
20260510003516 27 57 0.0 1.6 0.00 0.10 0.00 51 1009.0
20260510002516 27 0.0 1.6 0.00 0.10 0.00 47 1009.0
20260510001516 27 0.0 3.2 0.00 0.10 0.00 49 1008.9
20260510000516 27 57 0.0 3.2 0.00 0.10 0.00 47 1008.9
20260509235521 27 57 0.0 3.2 0.00 0.10 0.00 42 1008.9
20260509234516 28 60 1.6 4.8 0.00 0.10 0.00 40 1008.8
20260509233518 28 63 3.2 6.4 0.00 0.10 0.00 37 1008.8
20260509232516 28 62 1.6 4.8 0.00 0.10 0.00 39 1008.8
20260509231516 28 53 3.2 6.4 0.00 0.10 0.00 36 1008.8
20260509230516 28 89 1.6 4.8 0.00 0.10 0.00 37 1008.8
20260509225516 28 53 1.6 3.2 0.00 0.10 0.00 41 1008.7
20260509224516 28 105 1.6 4.8 0.00 0.10 0.00 39 1008.8
20260509223516 28 128 1.6 4.8 0.00 0.10 0.00 39 1008.7
20260509222516 28 109 1.6 4.8 0.00 0.10 0.00 40 1008.7
20260509221516 28 117 1.6 8.0 0.00 0.10 0.00 39 1008.7
20260509220516 29 127 1.6 4.8 0.00 0.10 0.00 40 1008.6
20260509215516 28 61 1.6 6.4 0.00 0.10 0.00 34 1008.6
20260509214516 29 56 3.2 6.4 0.00 0.10 0.00 37 1008.7
20260509213516 29 134 1.6 4.8 0.00 0.10 0.00 41 1008.7
20260509212516 28 70 1.6 6.4 0.00 0.10 0.00 38 1008.9
20260509211516 29 111 1.6 6.4 0.00 0.10 0.00 36 1009.0
20260509210516 28 89 3.2 14.5 0.00 0.10 0.00 40 1009.0
20260509205516 29 118 1.6 6.4 0.00 0.10 0.00 40 1009.0
20260509204516 28 120 3.2 9.7 0.00 0.10 0.00 39 1009.1
20260509203536 28 44 3.2 6.4 0.00 0.10 0.00 38 1009.2
20260509202516 28 70 1.6 8.0 0.00 0.10 0.00 41 1009.3
20260509201516 28 103 1.6 6.4 0.00 0.10 0.00 40 1009.5
20260509200536 28 99 3.2 8.0 0.00 0.10 0.00 44 1009.6
20260509195516 28 146 1.6 8.0 0.00 0.10 0.00 48 1009.6
20260509194516 28 162 3.2 8.0 0.00 0.10 0.00 44 1009.8
20260509193516 28 155 4.8 11.3 0.00 0.10 0.00 47 1009.7
20260509192536 27 293 3.2 12.9 0.00 0.10 0.00 48 1009.8
20260509191516 27 88 4.8 11.3 0.00 0.10 0.00 50 1009.8
20260509190516 27 148 4.8 9.7 0.00 0.10 0.00 54 1009.9
20260509185516 27 148 4.8 9.7 0.00 0.10 0.00 55 1009.9
20260509184538 27 138 3.2 8.0 0.00 0.10 0.00 52 1010.1
20260509183516 27 63 4.8 6.4 0.00 0.10 0.00 53 1010.2
20260509182516 27 121 1.6 11.3 0.00 0.10 0.00 58 1010.3
20260509181536 27 149 4.8 12.9 0.00 0.10 0.00 61 1010.3
20260509180516 27 58 4.8 12.9 0.00 0.10 0.00 59 1010.4
20260509175516 26 211 1.6 8.0 0.00 0.10 0.00 63 1010.4
20260509174516 26 140 3.2 8.0 0.00 0.10 0.00 65 1010.5
20260509173656 26 66 4.8 9.7 0.00 0.10 0.00 64 1010.5
20260509172516 26 21 3.2 8.0 0.00 0.10 0.00 67 1010.6
20260509171516 26 321 3.2 8.0 0.00 0.10 0.00 67 1010.6
20260509170518 25 158 3.2 8.0 0.00 0.10 0.00 70 1010.5
20260509165515 25 257 4.8 9.7 0.00 0.10 0.00 71 1010.6
20260509164536 24 223 1.6 9.7 0.00 0.10 0.00 73 1010.7
20260509163516 24 242 3.2 9.7 0.00 0.10 0.00 73 1010.7
20260509162516 24 18 3.2 6.4 0.00 0.10 0.00 75 1010.8
20260509161516 23 297 1.6 9.7 0.00 0.10 0.00 75 1010.8
20260509160515 23 285 3.2 6.4 0.00 0.10 0.00 75 1010.8
20260509155516 23 281 1.6 4.8 0.00 0.10 0.00 76 1010.8
20260509154516 22 323 1.6 6.4 0.00 0.10 0.00 76 1010.8
20260509153535 22 252 3.2 8.0 0.00 0.10 0.00 77 1010.9
20260509152518 22 188 1.6 4.8 0.00 0.10 0.00 79 1010.8
20260509151516 22 227 1.6 6.4 0.00 0.10 0.00 78 1010.8
20260509150516 21 76 1.6 4.8 0.00 0.10 0.00 83 1010.8
20260509145516 21 162 1.6 4.8 0.00 0.10 0.00 85 1010.9
20260509144516 20 287 1.6 4.8 0.00 0.10 0.00 86 1010.9
20260509143516 19 22 1.6 4.8 0.00 0.10 0.00 89 1011.1
20260509142516 18 293 3.2 6.4 0.00 0.10 0.00 92 1011.1
20260509141516 17 306 3.2 6.4 0.00 0.10 0.00 96 1011.3
20260509140516 17 282 1.6 4.8 0.00 0.10 0.00 98 1011.2
20260509135516 17 311 1.6 4.8 0.00 0.10 0.00 98 1011.2
20260509134516 16 320 1.6 4.8 0.00 0.10 0.00 98 1011.2
20260509133516 15 302 1.6 3.2 0.00 0.10 0.00 98 1011.2
20260509132516 15 310 1.6 3.2 0.00 0.10 0.00 98 1011.0
20260509131516 15 345 0.0 3.2 0.00 0.10 0.00 98 1010.9
20260509130516 15 225 0.0 1.6 0.00 0.10 0.00 98 1010.8
20260509125516 14 225 0.0 3.2 0.00 0.10 0.00 98 1010.8
20260509124516 14 225 0.0 3.2 0.00 0.10 0.00 98 1010.7
20260509123516 13 225 1.6 3.2 0.00 0.10 0.00 98 1010.6
20260509122516 13 0.0 0.0 0.00 0.10 0.00 98 1010.4
20260509121516 13 0.0 1.6 0.00 0.10 0.00 98 1010.3
20260509120538 12 229 1.6 3.2 0.00 0.10 0.00 97 1010.1
20260509115516 12 229 1.6 3.2 0.00 0.10 0.00 97 1010.0
20260509114518 12 229 0.0 3.2 0.00 0.10 0.00 97 1009.9
20260509113535 12 0.0 1.6 0.00 0.10 0.00 97 1009.9
20260509112516 12 229 1.6 1.6 0.00 0.10 0.00 97 1009.7
20260509111523 12 229 0.0 1.6 0.00 0.10 0.00 97 1009.7
20260509110516 12 229 0.0 3.2 0.00 0.10 0.00 97 1009.6
20260509105516 13 0.0 0.0 0.00 0.10 0.00 97 1009.4
20260509104516 13 152 1.6 3.2 0.00 0.10 0.00 97 1009.3
20260509103624 13 152 0.0 1.6 0.00 0.10 0.00 97 1009.2
20260509102516 13 0.0 0.0 0.00 0.10 0.00 97 1009.2
20260509101518 13 152 0.0 1.6 0.00 0.10 0.00 97 1009.2
20260509100516 13 152 1.6 3.2 0.00 0.10 0.00 97 1009.1
20260509095516 13 75 0.0 3.2 0.00 0.10 0.00 97 1009.1
20260509094516 13 64 1.6 3.2 0.00 0.10 0.00 97 1009.1
20260509093516 13 84 0.0 3.2 0.00 0.10 0.00 97 1009.0
20260509092518 14 0.0 0.0 0.00 0.10 0.00 97 1008.9
20260509091536 14 118 0.0 1.6 0.00 0.10 0.00 97 1008.9
20260509090516 14 118 0.0 1.6 0.00 0.10 0.00 97 1008.9
20260509085516 14 0.0 0.0 0.00 0.10 0.00 97 1009.0
20260509084516 14 0.0 0.0 0.00 0.10 0.00 97 1009.0
20260509083516 14 118 0.0 1.6 0.00 0.10 0.00 97 1009.2
20260509082516 15 118 0.0 3.2 0.00 0.10 0.00 97 1009.2
20260509081516 15 118 0.0 3.2 0.00 0.10 0.00 97 1009.2
20260509080518 15 10 1.6 3.2 0.00 0.10 0.00 97 1009.3
20260509075516 14 9 1.6 4.8 0.00 0.10 0.00 97 1009.4
20260509074518 14 352 0.0 1.6 0.00 0.10 0.00 97 1009.4
20260509073536 14 352 1.6 3.2 0.00 0.10 0.00 96 1009.6
20260509072556 14 312 1.6 4.8 0.00 0.10 0.00 96 1009.7
20260509071536 14 210 0.0 3.2 0.00 0.10 0.00 96 1009.7
20260509070536 14 210 0.0 1.6 0.00 0.10 0.00 96 1009.7
20260509065516 14 210 0.0 1.6 0.00 0.10 0.00 96 1009.7
20260509064516 14 210 0.0 1.6 0.00 0.10 0.00 96 1009.5
20260509063536 15 241 1.6 3.2 0.00 0.10 0.00 95 1009.3
20260509062516 15 9 0.0 3.2 0.00 0.10 0.00 96 1009.2
20260509061516 15 0.0 0.0 0.00 0.10 0.00 96 1009.1
20260509060521 15 0.0 0.0 0.00 0.10 0.00 96 1009.2
20260509055516 15 8 1.6 3.2 0.00 0.10 0.00 95 1009.4
20260509054538 15 348 1.6 3.2 0.00 0.10 0.00 95 1009.5
20260509053516 15 242 1.6 3.2 0.00 0.10 0.00 95 1009.7
20260509052516 16 286 3.2 3.2 0.00 0.10 0.00 94 1009.8
20260509051536 16 257 0.0 3.2 0.00 0.10 0.00 94 1010.0
20260509050516 16 317 1.6 4.8 0.03 0.10 0.00 94 1010.1
20260509045516 16 102 1.6 4.8 0.03 0.10 0.10 94 1010.1